Hourly Data Report for October 01, 2017

All times are specified in Local Standard Time (LST). Add 1 hour to adjust for Daylight Saving Time where and when it is observed.

HAY RIVER A
NORTHWEST TERRITORIES

60°50'23.000" N
115°46'58.000" W
164.90 m
2202401
71935
YHY

Download Data

Hourly Data (October 2017)
Hourly Data Report for October 1, 2017
Temp Definition
°C
Dew Point Temp Definition
°C
Rel Hum Definition
%
Wind Dir Definition
10's deg

Wind Spd Definition
km/h
Visibility Definition
km
Stn Press Definition
kPa
Hmdx Definition


Wind Chill Definition


Weather Definition


TIME
00:00 Legend Double Dagger 5.5 4.4 93 31 37 24.1 98.57     LegendNANA
01:00 Legend Double Dagger 5.2 3.8 91 31 40 24.1 98.67     LegendNANA
02:00 Legend Double Dagger 4.7 4.0 95 31 40 24.1 98.76     Mostly Cloudy
03:00 Legend Double Dagger 4.7 3.0 89 33 37 24.1 98.86     LegendNANA
04:00 Legend Double Dagger 4.8 3.2 89 32 35 24.1 98.96     Rain
05:00 Legend Double Dagger 4.7 3.3 91 32 40 24.1 99.09     Mostly Cloudy
06:00 Legend Double Dagger 4.6 3.1 90 33 34 24.1 99.20     Rain
07:00 Legend Double Dagger 4.8 3.3 90 33 39 24.1 99.31     Rain
08:00 Legend Double Dagger 4.9 2.6 85 33 37 24.1 99.46     Rain
09:00 Legend Double Dagger 5.0 2.5 84 33 38 24.1 99.59     Rain
10:00 Legend Double Dagger 5.2 3.1 86 32 36 24.1 99.69     Rain
11:00 Legend Double Dagger 5.1 2.3 82 32 47 24.1 99.79     Rain
12:00 Legend Double Dagger 5.8 1.8 76 33 38 24.1 99.89     LegendNANA
13:00 Legend Double Dagger 6.0 2.1 76 32 39 24.1 99.99     LegendNANA
14:00 Legend Double Dagger 5.8 1.4 73 32 32 24.1 100.09     Mostly Cloudy
15:00 Legend Double Dagger 5.6 0.8 71 32 34 24.1 100.18     LegendNANA
16:00 Legend Double Dagger 5.4 0.3 70 33 28 24.1 100.29     LegendNANA
17:00 Legend Double Dagger 5.0 -0.9 66 34 23 24.1 100.37     Mostly Cloudy
18:00 Legend Double Dagger 5.3 -0.7 65 33 26 24.1 100.47     LegendNANA
19:00 Legend Double Dagger 5.0 -2.4 59 33 34 24.1 100.59     LegendNANA
20:00 Legend Double Dagger 5.1 -2.5 58 33 19 24.1 100.65     Mostly Cloudy
21:00 Legend Double Dagger 5.0 -3.3 55 33 25 24.1 100.70     LegendNANA
22:00 Legend Double Dagger 4.2 -4.0 55 33 27 24.1 100.76     LegendNANA
23:00 Legend Double Dagger 3.9 -4.4 55 34 16 24.1 100.80     Mostly Cloudy

Notes on Data Quality.

Legend

  • E = Estimated
  • M = Missing
  • NA = Not Available
  • ‡ = Partner data that is not subject to review by the National Climate Archives
Date modified: